STARLINK-32083, 60343

Orbit data source: Space-Track

STARLINK-32083, 60343 is a payload satellite owned by SpaceX/Seattle (US) in LEO that was launched on Fri, 02 Aug 2024 UTC via an FALCON 9 launch vehicle from the Air Force Eastern Test Range (AFETR). Payloads include a variety of satellites, spacecraft, and rockets equipped with specific instruments for various scientific and technological missions. These include communications satellites like Starlink; space stations such as the ISS; scientific satellites like the Hubble; Earth observation satellites from companies like Planet Labs, Umbra, and HawkEye 360; GPS; miniature CubeSats for education and research; and military/defense satellites.

Loading next visibility...
STARLINK-32083 details
Identifier
60343, 2024-136Q
Orbit
LEO
Last TLE update20 hours ago
Origin
Flag of USSpaceX/Seattle (US)
ManufacturerSpaceX/Seattle
MissionOperational spacecraft
Bus & MotorSTARLINK V2M, Unknown motor
Mass730 kg wet, ~700 kg dry
Launch date (UTC)
2024-08-02 (5 months ago)
Launch vehicle
FALCON 9
Launch site
Air Force Eastern Test Range (AFETR)
Object type
Payload
Rocket body
Debris
Shape & HBRUnknown
Radar Cross SectionLarge (>1 m²)

Expand to show TLE details & history

TLE from 20 hours ago
0 STARLINK-32083
1 60343U 24136Q   24356.38879532 -.00000831  00000-0 -15918-4 0  9999
2 60343  53.1620 334.6890 0001413  96.2118 263.9044 15.30197781 21793
Epoch: 2024-12-21T09:19Z
Definitive object data (Epoch: 2024-12-21T09:19:51.915Z)
Latitude-0.00001°
Longitude104.28202°
Altitude476.225 km
Speed7.629 km/s
True Right ascension22h 18m 45s
True Declination0° 00' 00"
Sunlit
Object was in daylight at TLE epoch
Visualization TLE readout
Latitude12.66928°
Longitude109.96458°
Altitude475.243 km
Speed7.631 km/s
Apparent Right ascension20h 20m 03s
Apparent Declination-16° 56' 41"
Sunlit
Object is in daylight
Visualization observer readout
Local Sidereal Time04:51:19
Azimuth281.433° WNW
Elevation-39.559°
Doppler factor1
Orbital elements
Apogee altitude476.446 km
Perigee altitude474.509 km
Semi-major axis6,853.615 km
Eccentricity0.0001413
Inclination53.162°
RAAN334.689°
Arg. of periapsis96.2118°
True anomaly263.8883°
Mean anomaly263.9044°
Eccentric anomaly263.89635°
Mean motion3.82528 °/min
BSTAR-0.000015918
Orbital period94.11 mins
Loading maneuver chart data...
Loading historical data...
Loading historical data...
Loading historical data...
Loading historical data...
Loading historical data...
Loading historical data...
Loading historical data...

STARLINK-32083 Visibility forecast

Observer location: undefined°, undefined

Span
Click to sort rows by Start time (UTC) header in descending order
Start Az.
Max El. time (UTC)
Max El. Az.
Max El.
End time (UTC)
End Az.
5 mins2024-12-22 07:46:40.941Z335.456° NNW2024-12-22 07:48:40.941Z51.711° ENE35.001°2024-12-22 07:51:40.941Z108.508° ESE
4 mins2024-12-22 09:24:40.941Z260.887° W2024-12-22 09:25:40.941Z239.679° WSW19.212°2024-12-22 09:28:40.941Z182.717° SSW
5 mins2024-12-23 00:41:40.941Z198.67° SSW2024-12-23 00:43:40.941Z146.976° SSE34.447°2024-12-23 00:46:40.941Z65.842° ENE
4 mins2024-12-23 02:20:40.941Z298.22° NW2024-12-23 02:21:40.941Z323.823° NNW23.8°2024-12-23 02:24:40.941Z27.107° NE
|